Location: Düngen
(52.0952°N, 10.0219°E)
Time: 15:51:17
(UTC+00:00)

Cosmos 220 Rocket - Pass Details

Date: 11 March 2026
Orbit: 540 x 572 km, 74.0° (Epoch: 14 April)

Event Time Altitude Azimuth Distance (km) Brightness Sun altitude
Rises 19:01:11 0° 335° (NNW) 2,715 8.0 -16.6°
Reaches altitude 10° 19:03:23 10° 337° (NNW) 1,816 7.0 -16.9°
Maximum altitude 19:07:25 79° 63° (ENE) 557 3.7 -17.5°
Enters shadow 19:09:06 34° 147° (SSE) 914 4.5 -17.8°
